TimeEDT,TemperatureF,Dew PointF,Humidity,Sea Level PressureIn,VisibilityMPH,Wind Direction,Wind SpeedMPH,Gust SpeedMPH,PrecipitationIn,Events,Conditions,WindDirDegrees,DateUTC
12:53 AM,48.9,42.1,77,30.15,10.0,Calm,Calm,-,N/A,,Clear,0,2013-10-11 04:53:00
1:53 AM,45.0,41.0,86,30.15,10.0,Calm,Calm,-,N/A,,Clear,0,2013-10-11 05:53:00
2:53 AM,44.1,39.9,85,30.15,10.0,Calm,Calm,-,N/A,,Clear,0,2013-10-11 06:53:00
3:53 AM,41.0,39.0,93,30.14,10.0,Calm,Calm,-,N/A,,Clear,0,2013-10-11 07:53:00
4:53 AM,41.0,37.9,89,30.14,10.0,Calm,Calm,-,N/A,,Clear,0,2013-10-11 08:53:00
5:53 AM,41.0,37.9,89,30.16,10.0,Calm,Calm,-,N/A,,Clear,0,2013-10-11 09:53:00
6:53 AM,39.9,37.9,93,30.17,10.0,Calm,Calm,-,N/A,,Clear,0,2013-10-11 10:53:00
7:53 AM,37.9,37.0,97,30.19,7.0,Calm,Calm,-,N/A,,Clear,0,2013-10-11 11:53:00
8:53 AM,45.0,41.0,86,30.19,10.0,Calm,Calm,-,N/A,,Clear,0,2013-10-11 12:53:00
9:53 AM,53.1,45.0,74,30.18,10.0,Calm,Calm,-,N/A,,Clear,0,2013-10-11 13:53:00
10:53 AM,61.0,48.0,62,30.17,10.0,ENE,4.6,-,N/A,,Clear,70,2013-10-11 14:53:00
11:53 AM,64.9,45.0,48,30.16,10.0,East,6.9,-,N/A,,Clear,80,2013-10-11 15:53:00
12:53 PM,68.0,45.0,43,30.14,10.0,Variable,5.8,-,N/A,,Clear,0,2013-10-11 16:53:00
1:53 PM,71.1,39.9,32,30.12,10.0,Variable,5.8,-,N/A,,Clear,0,2013-10-11 17:53:00
2:53 PM,73.0,39.9,30,30.10,10.0,ENE,4.6,-,N/A,,Clear,70,2013-10-11 18:53:00
3:53 PM,73.9,41.0,30,30.09,10.0,East,6.9,-,N/A,,Clear,100,2013-10-11 19:53:00
4:53 PM,73.0,39.9,30,30.09,10.0,East,5.8,-,N/A,,Clear,90,2013-10-11 20:53:00
5:53 PM,71.1,41.0,34,30.09,10.0,ESE,5.8,-,N/A,,Clear,110,2013-10-11 21:53:00
6:53 PM,63.0,42.1,46,30.10,10.0,SE,4.6,-,N/A,,Clear,140,2013-10-11 22:53:00
7:53 PM,59.0,43.0,55,30.10,10.0,ESE,5.8,-,N/A,,Clear,120,2013-10-11 23:53:00
8:53 PM,57.0,43.0,59,30.10,10.0,SE,4.6,-,N/A,,Clear,130,2013-10-12 00:53:00
9:53 PM,57.0,42.1,57,30.10,10.0,Calm,Calm,-,N/A,,Clear,0,2013-10-12 01:53:00
10:53 PM,52.0,42.1,69,30.11,10.0,Calm,Calm,-,N/A,,Clear,0,2013-10-12 02:53:00
11:53 PM,53.1,44.1,71,30.10,10.0,East,3.5,-,N/A,,Clear,90,2013-10-12 03:53:00